Pagrindinis puslapis
METAR-TAF:

METAR-TAF

Oro uostai :

Tabas, Iranas

platuma: 33-36N, ilguma: 056-55E, Aukštis: 710 m

Dabartinis oras

Ataskaita buvo paskelbta 35 minutes, ne 07:00 UTC
Ramus vėjas
Temperatūra 23°C
Drėgmė 10%
Slėgis 1021 hPa

METAR: OIMT 210700Z AUTO 00000KT //// // ////// 23/M10 Q1021

Laikas: 11:05 (07:35 UTC)


TAF: trūkstamas

Orai ataskaitas ir orų prognozės (METAR, TAF).

turimą stotys yra geltonos ir raudonos taškus žemėlapyje.

Perkelti pele per norėdami pamatyti stoties vardą.

Tada spustelėkite, norėdami matyti oro stebėjimo ir prognozės.

Norėdami pakeisti žemėlapį: spustelėkite ant žalios mygtukų su juodo kryžiaus žemyn,; žalią mygtuką su brūkšneliu, jei norite nutolinti; arba žalių rodyklių gretimoms žemėlapius.


METAR-TAF: